Weather History for CWMT - October, 2012

Change the Weather History Date:

Monday, October 8, 2012

  Actual Average Record
Temperature  
Mean Temperature 28 °F -  
Max Temperature 40 °F - - ()
Min Temperature 15 °F - - ()
Degree Days  
Heating Degree Days 38    
Moisture  
Dew Point 26 °F    
Average Humidity 73    
Maximum Humidity 92    
Minimum Humidity 42    
Precipitation  
Precipitation 0.00 in - - ()
Sea Level Pressure  
Sea Level Pressure 30.07 in    
Wind  
Wind Speed 8 mph ()    
Max Wind Speed 14 mph    
Max Gust Speed 22 mph    
T = Trace of Precipitation, MM = Missing Value Source: Averaged Metar Reports

Daily Weather History Graph

Daily Weather History Graph

Search for Another Location

Airport or City:

Trip Planner

Search our weather history database for the weather conditions in past years. The results will help you decide how hot, cold, wet, or windy it might be!

Date:

Astronomy

Oct. 08, 2012 Rise Set
Actual Time 8:18 AM MDT 6:53 PM MDT
Civil Twilight 7:31 AM MDT 7:39 PM MDT
Nautical Twilight 6:38 AM MDT 8:32 PM MDT
Astronomical Twilight 5:42 AM MDT 9:27 PM MDT
Moon No Moon Rise 4:44 PM MDT (10/8)
Length of Visible Light 12h 07m
Length of Day
10h 34m
Last Quarter, 46% of the Moon is Illuminated
Oct 8
Last Quarter
Oct 15
New
Oct 21
First Quarter
Oct 29
Full
Nov 6
Last Quarter

Hourly Weather History & Observations

Time (MDT) Temp. Windchill Dew Point Humidity Pressure Visibility Wind Dir Wind Speed Gust Speed Precip Events Conditions
12:00 AM 38 °F - 32 °F 71% 30.01 in - NNW 13.8 mph - -  
12:00 AM 38.1 °F 29.8 °F 31.8 °F 78% 30.01 in - NNW 13.8 mph 21.9 mph N/A   Unknown
1:00 AM 37.4 °F 29.8 °F 31.8 °F 80% 30.02 in - NNW 11.5 mph 17.3 mph N/A   Unknown
3:00 AM 36.5 °F 29.7 °F 31.1 °F 81% 30.03 in - North 9.2 mph - N/A   Unknown
4:00 AM 36.0 °F 27.5 °F 31.1 °F 82% 30.04 in - North 12.7 mph 20.7 mph N/A   Unknown
5:00 AM 31.8 °F 23.9 °F 29.5 °F 91% 30.05 in - NNW 9.2 mph - N/A   Unknown
6:00 AM 34 °F - 30 °F 80% 30.05 in - NNW 9.2 mph - -  
6:00 AM 33.8 °F 26.4 °F 30.0 °F 86% 30.05 in - NNW 9.2 mph - N/A   Unknown
7:00 AM 32.0 °F 23.6 °F 29.8 °F 92% 30.06 in - NNW 10.4 mph - N/A   Unknown
8:00 AM 31.1 °F 23.7 °F 27.9 °F 88% 30.07 in - NNW 8.1 mph - N/A   Unknown
9:00 AM 31.8 °F 23.3 °F 28.4 °F 87% 30.08 in - North 10.4 mph - N/A   Unknown
10:00 AM 33.6 °F 25.6 °F 28.8 °F 82% 30.08 in - North 10.4 mph - N/A   Unknown
11:00 AM 35.8 °F 29.4 °F 28.4 °F 75% 30.08 in - North 8.1 mph - N/A   Unknown
12:00 PM 16 °F - 7 °F 55% 30.10 in - North 9.2 mph - -  
12:00 PM 15.6 °F 4.0 °F 7.0 °F 69% 30.10 in - North 9.2 mph - N/A   Unknown
1:00 PM 38.5 °F 33.4 °F 25.9 °F 61% 30.09 in - North 6.9 mph - N/A   Unknown
2:00 PM 39.0 °F 32.8 °F 26.1 °F 60% 30.09 in - NW 9.2 mph - N/A   Unknown
3:00 PM 39.0 °F 33.4 °F 24.3 °F 55% 30.09 in - NNW 8.1 mph - N/A   Unknown
4:00 PM 38.1 °F 32.9 °F 26.8 °F 64% 30.09 in - NW 6.9 mph - N/A   Unknown
5:00 PM 40.8 °F 36.2 °F 24.8 °F 53% 30.08 in - North 6.9 mph - N/A   Unknown
6:00 PM 40 °F - 25 °F 42% 30.09 in - NNW 5.8 mph - -  
6:00 PM 39.6 °F 35.4 °F 25.0 °F 56% 30.09 in - NNW 5.8 mph - N/A   Unknown
7:00 PM 36.5 °F 33.9 °F 24.3 °F 61% 30.09 in - North 3.5 mph - N/A   Unknown
8:00 PM 30.7 °F - 24.3 °F 77% 30.09 in - North 2.3 mph - N/A   Unknown
9:00 PM 31.3 °F 27.9 °F 27.0 °F 84% 30.08 in - SSW 3.5 mph - N/A   Unknown
10:00 PM 30.6 °F - 27.0 °F 86% 30.06 in - East 2.3 mph - N/A   Unknown
11:00 PM 30.2 °F - 27.1 °F 88% 30.06 in - Calm Calm - N/A   Unknown